EW7952 Weather Reports


time (UTC)temp
C
wind
direction
speed
KPH
gust
KPH
rain 1hr
cm
rain 24hr
cm
rain mn
cm
humidity
%
barometer
mb
20260506044209 11 135 0.0 0.0 0.00 5.18 0.20 94 5.6
20260506043215 11 157 0.0 0.0 0.00 5.18 0.20 94 5.5
20260506042215 11 225 0.0 0.0 0.00 5.18 0.20 94 5.5
20260506041214 11 225 0.0 0.0 0.00 5.18 0.20 94 5.5
20260506040214 11 270 0.0 0.0 0.00 5.18 0.20 94 5.4
20260506034213 11 202 0.0 0.0 0.00 5.18 0.20 94 5.4
20260506033213 11 202 0.0 0.0 0.00 5.18 0.20 94 5.6
20260506032212 11 202 0.0 0.0 0.00 5.18 0.20 94 5.7
20260506031211 18 360 9.7 9.7 0.00 5.18 4.95 71 8.0
20260506030211 11 202 0.0 0.0 0.00 2.49 0.20 94 5.6
20260506025215 11 225 0.0 0.0 0.00 2.49 0.20 94 5.8
20260506024215 11 337 0.0 0.0 0.00 2.49 0.20 94 5.8
20260506023215 11 247 0.0 0.0 0.00 2.49 0.20 94 5.9
20260506022214 11 315 0.0 0.0 0.00 2.49 0.20 94 6.0
20260506021213 11 22 0.0 0.0 0.00 2.49 0.20 94 6.0
20260506020213 11 360 0.0 0.0 0.00 2.54 0.20 94 6.1
20260506015213 11 22 0.0 0.0 0.00 2.54 0.20 94 6.0
20260506014213 11 67 0.0 0.0 0.00 2.54 0.20 94 6.1
20260506013212 11 45 0.0 0.0 0.00 2.54 0.20 94 6.1
20260506012212 11 315 0.0 0.0 0.00 2.54 0.20 94 6.2
20260506011211 11 225 0.0 0.0 0.00 2.54 0.20 94 6.2
20260506010215 11 247 0.0 0.0 0.00 2.54 0.20 94 6.3
20260506005215 11 247 0.0 0.0 0.00 2.54 0.20 94 6.3
20260506004215 11 247 0.0 0.0 0.00 2.54 0.20 94 6.3
20260506003214 11 247 0.0 0.0 0.00 2.54 0.20 94 6.3
20260506002214 11 270 0.0 0.0 0.00 2.54 0.20 93 6.2
20260506001213 11 225 0.0 0.0 0.05 2.54 0.20 93 6.3
20260506000212 11 225 0.0 0.0 0.05 2.54 0.20 93 6.4
20260505235212 11 180 0.0 0.0 0.05 2.54 0.20 93 6.5
20260505232214 11 135 0.0 0.0 0.10 2.54 0.20 93 6.7
20260505231214 12 202 0.0 0.0 0.05 2.49 0.15 93 6.6
20260505230213 12 202 0.0 0.0 0.10 2.49 0.15 93 6.9
20260505225212 12 202 0.0 0.0 0.15 2.49 0.15 93 6.7
20260505224211 12 225 0.0 0.0 0.15 2.49 0.15 93 6.5
20260505223215 12 360 0.0 0.0 0.20 2.44 0.10 93 6.6
20260505222214 12 225 0.0 0.0 0.30 2.44 0.10 93 6.8
20260505221214 12 225 0.0 0.0 0.36 2.44 0.10 93 6.8
20260505220213 12 225 0.0 0.0 0.41 2.34 2.34 92 6.8
20260505214212 12 247 0.0 0.0 0.51 2.34 2.34 92 7.0
20260505213212 12 247 0.0 0.0 0.56 2.24 2.24 92 7.1
20260505211211 12 225 0.0 0.0 0.56 2.08 2.08 93 7.2
20260505210214 12 225 0.0 0.0 0.61 1.96 1.96 92 7.2
20260505205214 12 22 0.0 0.0 0.69 1.85 1.85 92 7.2
20260505204214 13 22 0.0 0.0 0.74 1.80 1.80 92 7.1
20260505203213 13 360 0.0 0.0 0.84 1.65 1.65 92 7.0
20260505202213 13 337 0.0 0.0 1.09 1.60 1.60 92 6.9
20260505201212 13 247 0.0 0.0 1.14 1.50 1.50 92 7.1
20260505200212 13 202 0.0 0.0 1.04 1.35 1.35 92 7.0
20260505195212 13 202 0.0 0.0 0.94 1.19 1.19 92 7.0
20260505194211 13 202 0.0 0.0 0.84 1.09 1.09 92 7.1
20260505193211 13 112 0.0 0.0 0.61 0.84 0.84 92 7.0
20260505192215 13 247 0.0 0.0 0.30 0.51 0.51 91 7.1
20260505191214 13 225 0.0 0.0 0.10 0.30 0.30 91 7.1
20260505190214 13 225 0.0 0.0 0.10 0.30 0.30 91 7.0
20260505183212 14 225 0.0 0.0 0.05 0.20 0.20 90 6.8
20260505182211 14 337 0.0 0.0 0.05 0.20 0.20 90 6.8
20260505181211 14 337 0.0 0.0 0.05 0.20 0.20 90 6.8
20260505180210 15 225 0.0 0.0 0.10 0.20 0.20 89 6.8
20260505174215 15 337 0.0 0.0 0.10 0.20 0.20 88 6.8
20260505173215 15 360 0.0 0.0 0.05 0.15 0.15 87 6.8
20260505171213 16 247 0.0 0.0 0.05 0.15 0.15 84 6.9
20260505165213 16 22 12.9 12.9 0.00 0.10 0.10 78 6.8
20260505164212 16 22 12.9 12.9 0.00 0.10 0.10 76 6.9
20260505163211 17 360 14.5 14.5 0.00 0.10 0.10 75 7.0
20260505162213 17 337 9.7 9.7 0.00 0.10 0.10 75 7.0
20260505160214 17 360 11.3 11.3 0.00 0.10 0.10 73 7.1
20260505153211 18 360 11.3 11.3 0.00 0.10 0.10 71 7.0
20260505152211 18 22 0.0 0.0 0.00 0.10 0.10 71 7.1
20260505151211 18 22 8.0 8.0 0.00 0.10 0.10 71 7.2
20260505140211 18 67 4.8 4.8 0.00 0.10 0.10 70 7.8
20260505130212 18 45 4.8 4.8 0.00 0.10 0.10 71 8.3
20260505124211 18 45 3.2 3.2 0.00 0.10 0.10 70 8.5
20260505123211 18 360 9.7 9.7 0.00 0.10 0.10 71 8.5
20260505121210 19 315 4.8 4.8 0.00 0.10 0.10 70 8.8
20260505120213 19 112 1.6 1.6 0.00 0.10 0.10 70 8.9
20260505115212 19 45 0.0 0.0 0.00 0.10 0.10 68 8.9
20260505114212 18 112 0.0 0.0 0.00 0.10 0.10 68 9.1